Location: Bald Rock
(37.3738°N, 119.9354°W)
Time: 21:45:52
(UTC+00:00)

ATLAS 5 CENTAUR R/B - Pass Details

Date: 08 September 2024
Orbit: 409 x 1153 km, 63.3° (Epoch: 12 October)

Event Time Altitude Azimuth Distance (km) Brightness Sun altitude
Exits shadow 12:43:34 - 195° (SSW) 2,180 4.1 -11.1°
Reaches altitude 10° 12:45:18 10° 188° (S) 1,468 3.3 -10.8°
Maximum altitude 12:48:17 39° 118° (ESE) 634 2.1 -10.2°
Drops below altitude 10° 12:51:23 10° 47° (NE) 1,523 4.7 -9.6°
Sets 12:53:37 0° 40° (NE) 2,452 5.6 -9.2°
